Tracking 28790 objects as of 18-Apr-2024
HD Live streaming from Space Station
objects crossing your sky now

ARABSAT 1DR (TELSTAR 3A)

Track ARABSAT 1DR (TELSTAR 3A) now!
ARABSAT 1DR (TELSTAR 3A) is classified as:


NORAD ID: 14234
Int'l Code: 1983-077A
Perigee: 35,889.5 km
Apogee: 36,120.3 km
Inclination: 14.3 °
Period: 1,446.9 minutes
Semi major axis: 42375 km
RCS: 2.5151 m2 (large)
Launch date: July 28, 1983
Source: Arab Satellite Communications Organization (AB)
Launch site: AIR FORCE EASTERN TEST RANGE (AFETR)
Your satellite tracking list
Your tracking list is empty




NASA's NSSDC Master Catalog

Two Line Element Set (TLE):
1 14234U 83077A   24108.58135293 -.00000223  00000-0  00000+0 0  9997
2 14234  14.3470 347.7989 0027234 147.0721 213.0624  0.99523161121099
Source of the keplerian elements: AFSPC